SAOCOM 1A

Last updated on Wed Jul 02 2025 00:02:15 GMT+0000 (Coordinated Universal Time)

1 43641U 18076A 25182.55376971 .00000293 00000+0 43391-4 0 9998 2 43641 97.8888 9.3259 0001398 90.2547 269.8826 14.82151768364168
UTC large
Height (km)
Speed (km/s)
/
Latitude / Longitude
Inclination (degrees)
Orbital Period (minutes)
Azimuth
Elevation
Range (km)
Doppler Factor

Next 0 passes for location: London (51.5072 / 0.1276)

Sorry there are no passes over London.